Regional Weather Roundup
Issued by NWS

Home | Current Version | Previous Version | Graphics & Text | Print | Product List | Glossary On
Versions: 1 2 3 4 5 6 7 8 9 10 11 12 13 14 15 16 17 18 19 20 21 22 23 24 25 26 27 28
000
ASUS45 KTFX 280210
RWRMT
MONTANA REGIONAL WEATHER ROUNDUP
NATIONAL WEATHER SERVICE GREAT FALLS MT
700 PM MST MON FEB 27 2017

NOTE: "FAIR" INDICATES FEW OR NO CLOUDS BELOW 12000 FEET WITH NO
SIGNIFICANT WEATHER AND/OR OBSTRUCTIONS TO VISIBILITY.

MTZ001>007-043-280300-
WEST OF THE DIVIDE

CITY           SKY/WX    TMP DP  RH WIND       PRES   REMARKS
KALISPELL      CLOUDY    20  18  92 NW3       29.59R
MISSOULA       MOCLDY    30  22  72 SW8       29.63R WCI  22
BUTTE          CLOUDY    24  13  62 SW6       29.55R WCI  17
MULLAN PASS    LGT SNOW  16  15  96 VRB5      29.46S VSB 3/4
ANACONDA         N/A     21  14  73 S5        29.57R
DEER LODGE       N/A     19  18  93 SW5       29.60R
EUREKA           N/A     25  21  86 N3        29.59R
HAMILTON         N/A     30  10  43 S5        29.62R
LIBBY            N/A     27  25  93 CALM      29.58S
PLAINS           N/A     28  22  78 CALM      29.65R
$$

MTZ008-052>055-280300-
SOUTHWEST MONTANA

CITY           SKY/WX    TMP DP  RH WIND       PRES   REMARKS
BOZEMAN        CLOUDY    26  21  81 N7        29.60R WCI  18
DILLON         CLEAR     22  11  62 S10       29.57R WCI  11
W YELLOWSTONE  LGT SNOW  14  10  85 SW20G26   29.59R WCI  -3
ENNIS          CLOUDY    23  10  58 SE16      29.61R WCI  10
THREE FORKS      N/A     25 -23  11 CALM      29.63R
TWIN BRIDGES     N/A     27  12  53 CALM      29.62R
$$

MTZ009-010-012-014-046-048-049-054-280300-
EAST SLOPES AND CENTRAL MONTANA

CITY           SKY/WX    TMP DP  RH WIND       PRES   REMARKS
CUT BANK       PTCLDY    14  10  84 SE8       29.54R WCI   3
GREAT FALLS    CLOUDY    14   9  80 S7        29.56R WCI   4
MALMSTROM AFB  CLOUDY    12   8  83 S6        29.58R WCI   3
HELENA         CLEAR     20  16  84 W5        29.59R
AUGUSTA        MOCLDY    20  17  88 S7        29.52R WCI  11
BOWMANS CRNR     N/A     19  15  84 S7        29.52R WCI  10
CHOTEAU          N/A     18  14  86 CALM      29.57R
CONRAD           N/A     11   7  84 SE2       29.62S
POWER            N/A     12   9  90 SE3       29.55R
RAYNESFORD     MOCLDY    16  10  76 E9        29.57R WCI   4
ULM            MOCLDY    17  13  86 MISG      29.58R
$$

MTZ011-013-016-021-045-047-050-051-280300-
NORTH CENTRAL MONTANA

CITY           SKY/WX    TMP DP  RH WIND       PRES   REMARKS
HAVRE          CLEAR     19  11  70 NE5       29.64R
LEWISTOWN      CLOUDY    16  11  80 E6        29.58R WCI   7
N BAR RANCH      N/A     10   7  85 NW6       29.60S WCI   1
CHINOOK          N/A     18  12  79 E6        29.66S WCI   9
DENTON           N/A     15  12  88 E5        29.57R
FORT BENTON      N/A     21  14  73 N6        29.63R WCI  14
GEYSER           N/A      9   6  89 SW8       29.57R WCI  -3
GRASS RANGE      N/A     12  11  95 CALM      29.58R
JUDITH GAP     MOCLDY    11   8  89 S12       29.58R WCI  -4
ROY              N/A     15  13  94 MISG      29.60R
STANFORD       MOCLDY    16  13  86 CALM      29.56R
WINIFRED         N/A     12  10  91 E12       29.60R WCI  -2
$$

MTZ017>020-022>027-061-062-280300-
NORTHEAST MONTANA

CITY           SKY/WX    TMP DP  RH WIND       PRES   REMARKS
GLASGOW        CLOUDY    15  10  80 E12       29.77R WCI   2
JORDAN           N/A     18  14  84 E5        29.71S
SIDNEY         FLURRIES  14  10  84 NE7       29.82S WCI   4
WOLF POINT     CLEAR     10   4  76 E7        29.81R WCI  -1
PLENTYWOOD       N/A      7   0  72 E6        29.81S WCI  -3
POPLAR           N/A      9   3  78 E8        29.82R WCI  -4
SCOBEY           N/A      5  -5  63 NW5       29.77R
$$

MTZ028>42-056>058-280300-
SOUTHCENTRAL AND SOUTHEAST MONTANA

CITY           SKY/WX    TMP DP  RH WIND       PRES   REMARKS
BAKER          CLOUDY    20  16  84 E12       29.72R WCI   8
BILLINGS       CLOUDY    26  18  71 SE8       29.63R WCI  18
LIVINGSTON     CLOUDY    27  16  63 SW9       29.55R WCI  18
MILES CITY     CLEAR     21  16  81 NE12      29.72R WCI   9
BIG TIMBER     CLOUDY    23  21  93 NE3       29.60R
EKALAKA          N/A     23  17  78 E7        29.68R WCI  15
FORSYTH          N/A     25  19  80 E7        29.69R WCI  17
HARLOWTON        N/A     13  11  90 N6        29.61R WCI   4
LAUREL           N/A     26  13  58 NE6       29.64R WCI  19
ROUNDUP          N/A     22  14  71 N1        29.59R
$$

REGIONAL REPORTS...DAKOTAS

CITY           SKY/WX    TMP DP  RH WIND       PRES   REMARKS
WILLISTON      CLEAR     10   5  80 E5        29.84S
MINOT          CLOUDY     5   1  83 N3        29.87R
DICKINSON      CLOUDY    15  12  88 E10       29.76R WCI   2
BEACH            N/A    N/A N/A N/A MISG        N/A
CROSBY           N/A      5   1  85 SE7       29.88R WCI  -7
TIOGA            N/A      1   1 100 E5        29.85R
WATFORD CITY     N/A      7   5  92 CALM      29.84R
BISMARCK       CLOUDY    21  16  81 NE9       29.84R WCI  11
GRAND FORKS    CLOUDY    19  10  68 N15       29.91S WCI   5
FARGO          CLOUDY    28  21  75 N16       29.84R WCI  16
BUFFALO SD       N/A     23  18  81 NE14      29.63R WCI  11
RAPID CITY     CLOUDY    32  18  56 NE9       29.65R WCI  24
$$

REGIONAL REPORTS...WYOMING/IDAHO/WASHINGTON

CITY           SKY/WX    TMP DP  RH WIND       PRES   REMARKS
GILLETTE       CLOUDY    26  18  71 CALM      29.60R
SHERIDAN       CLOUDY    25  17  72 VRB7      29.59F WCI  17
BUFFALO WY     CLOUDY    27  11  51 CALM      29.58R
CODY           CLOUDY    29  17  61 W5        29.55R
YELLOWSTONE LA   N/A     10   6  84 W8        29.56R WCI  -2
IDAHO FALLS    CLOUDY    22  17  81 S20       29.72R WCI   7
SALMON         CLOUDY    27  23  86 CALM      29.65R
BOISE          FLURRIES  31  27  85 SE8       29.79R WCI  23
SPOKANE        CLOUDY    29  24  82 S3        29.61F
$$

REGIONAL REPORTS...ALBERTA

CITY           SKY/WX    TMP DP  RH WIND       PRES   REMARKS
EDMONTON       PTCLDY    16   3  57 S5        29.64R
CALGARY        CLOUDY    14   5  67 NE3       29.57R
LETHBRIDGE     CLOUDY    19  12  73 NW7       29.57R WCI  10
MEDICINE HAT   FLURRIES  19  10  68 E8        29.65R WCI   9
WATERTON GATE    N/A     21  18  86 E3          N/A
CARDSTON         N/A     16  10  79 N7          N/A  WCI   6
MILK RIVER       N/A     16  12  86 S7          N/A  WCI   6
ONEFOUR          N/A     19  16  86 SE9         N/A  WCI   9
$$

REGIONAL REPORTS...SASKATCHEWAN

CITY           SKY/WX    TMP DP  RH WIND       PRES   REMARKS
SWIFT CURRENT  MOCLDY     7   1  78 SE9       29.69R WCI  -7
REGINA         CLEAR      5  -2  72 SE10      29.83S WCI -10
SASKATOON      PTCLDY    12   0  57 SW6       29.79S WCI   3
CYPRESS HILLS    N/A     12   9  85 S12         N/A  WCI  -2
VAL MARIE        N/A     18  12  79 S12         N/A  WCI   5
ROCKGLEN         N/A      7   3  85 S10         N/A  WCI  -8
ASSINIBOIA       N/A     10   5  79 S5          N/A
$$




USA.gov is the U.S. government's official web portal to all federal, state and local government web resources and services.